Peotone Weather
Station Historical Data
 
Daily Summary for October 20, 2018 Units:  English    Metric   Both
« Previous Day
Next Day »
Daily Weekly Monthly Yearly Custom
  Current: High: Low: Average:
Temperature: 47.8 °F 49.9 °F 41 °F 44.6 °F
Dew Point: 38.87 °F 46.19 °F 35.87 °F 39.5 °F
Humidity: 71% 88% 71% 82%
Wind Speed: 9.2mph 16.1mph 1.1mph 5.7mph
Wind Gust: 17.2mph 20.7mph - -
WindSSW - - West
Pressure: 29.90 in 29.91 in 29.89 in -
Precipitation: 0.01 in      
Historical Graphs
 
 
Tabular Data for October 20, 2018
Time Temperature Dew Point Pressure Wind Wind Speed Wind Gust Humidity Rainfall Rate (Hourly) solar Conditions
00:00 49.9 °F 46.19 °F 29.90 in WSW 6.9 mph 10.4 mph 87% 0 in 0.00 W/m2
00:04 49.8 °F 46.09 °F 29.89 in West 9.2 mph 9.2 mph 87% 0 in 0.00 W/m2
00:05 49.8 °F 46.09 °F 29.90 in WSW 5.8 mph 9.2 mph 87% 0 in 0.00 W/m2
00:09 49.8 °F 46.09 °F 29.89 in SW 5.8 mph 9.2 mph 87% 0 in 0.00 W/m2
00:14 49.7 °F 45.99 °F 29.89 in WSW 8.1 mph 8.1 mph 87% 0 in 0.00 W/m2
00:19 49.5 °F 45.8 °F 29.90 in WSW 5.8 mph 8.1 mph 87% 0 in 0.00 W/m2
00:24 49.4 °F 45.7 °F 29.90 in West 5.8 mph 8.1 mph 87% 0 in 0.00 W/m2
00:29 49.3 °F 45.6 °F 29.90 in WSW 4.6 mph 6.9 mph 87% 0 in 0.00 W/m2
00:34 49 °F 45.61 °F 29.90 in WSW 3.4 mph 5.8 mph 88% 0 in 0.00 W/m2
00:39 48.9 °F 45.51 °F 29.90 in West 2.3 mph 5.8 mph 88% 0 in 0.00 W/m2
00:44 48.7 °F 45.31 °F 29.90 in West 4.6 mph 6.9 mph 88% 0 in 0.00 W/m2
00:49 48.8 °F 45.41 °F 29.90 in SW 8.1 mph 10.3 mph 88% 0 in 0.00 W/m2
00:54 48.7 °F 45.31 °F 29.90 in West 2.3 mph 6.9 mph 88% 0 in 0.00 W/m2
00:59 48.6 °F 45.21 °F 29.90 in WSW 5.8 mph 8.1 mph 88% 0 in 0.00 W/m2
01:04 48.4 °F 45.02 °F 29.90 in WSW 4.6 mph 8.1 mph 88% 0 in 0.00 W/m2
01:09 48.4 °F 45.02 °F 29.90 in West 5.8 mph 10.3 mph 88% 0 in 0.00 W/m2
01:14 48.4 °F 44.72 °F 29.90 in West 8.1 mph 10.3 mph 87% 0 in 0.00 W/m2
01:19 48.4 °F 44.72 °F 29.90 in WSW 5.8 mph 9.2 mph 87% 0 in 0.00 W/m2
01:24 48.3 °F 44.31 °F 29.91 in West 4.6 mph 6.9 mph 86% 0 in 0.00 W/m2
01:29 48.1 °F 44.12 °F 29.91 in West 3.4 mph 8.1 mph 86% 0 in 0.00 W/m2
01:34 47.9 °F 43.92 °F 29.90 in West 4.6 mph 6.9 mph 86% 0 in 0.00 W/m2
01:39 47.7 °F 43.72 °F 29.91 in West 2.3 mph 6.9 mph 86% 0 in 0.00 W/m2
01:44 47.4 °F 43.43 °F 29.91 in West 3.4 mph 5.8 mph 86% 0 in 0.00 W/m2
01:49 47.2 °F 43.23 °F 29.91 in West 2.3 mph 5.8 mph 86% 0 in 0.00 W/m2
01:54 46.9 °F 42.94 °F 29.91 in West 5.8 mph 5.8 mph 86% 0 in 0.00 W/m2
01:59 46.8 °F 42.84 °F 29.91 in West 4.6 mph 5.8 mph 86% 0 in 0.00 W/m2
02:04 46.6 °F 42.64 °F 29.91 in West 5.8 mph 8.1 mph 86% 0 in 0.00 W/m2
02:09 46.6 °F 42.64 °F 29.91 in West 3.4 mph 5.8 mph 86% 0 in 0.00 W/m2
02:14 46.5 °F 42.55 °F 29.91 in West 3.4 mph 6.9 mph 86% 0 in 0.00 W/m2
02:19 46.3 °F 42.05 °F 29.90 in West 2.3 mph 5.8 mph 85% 0 in 0.00 W/m2
02:24 46.1 °F 41.85 °F 29.90 in West 3.4 mph 6.9 mph 85% 0 in 0.00 W/m2
02:29 45.8 °F 41.86 °F 29.90 in West 3.4 mph 4.6 mph 86% 0 in 0.00 W/m2
02:34 45.7 °F 41.46 °F 29.90 in West 3.4 mph 4.6 mph 85% 0 in 0.00 W/m2
02:39 45.6 °F 41.36 °F 29.91 in West 3.4 mph 4.6 mph 85% 0 in 0.00 W/m2
02:44 45.3 °F 41.06 °F 29.90 in West 3.4 mph 3.4 mph 85% 0 in 0.00 W/m2
02:49 45.1 °F 40.87 °F 29.90 in West 3.4 mph 4.6 mph 85% 0 in 0.00 W/m2
02:54 45.1 °F 40.87 °F 29.90 in WSW 4.6 mph 5.8 mph 85% 0 in 0.00 W/m2
02:59 44.9 °F 40.67 °F 29.90 in WSW 3.4 mph 5.8 mph 85% 0 in 0.00 W/m2
03:04 44.8 °F 40.57 °F 29.90 in WSW 4.6 mph 4.6 mph 85% 0 in 0.00 W/m2
03:09 44.8 °F 40.57 °F 29.90 in West 5.8 mph 5.8 mph 85% 0 in 0.00 W/m2
03:14 44.7 °F 40.17 °F 29.90 in West 4.6 mph 5.8 mph 84% 0 in 0.00 W/m2
03:19 44.6 °F 40.07 °F 29.90 in West 2.3 mph 5.8 mph 84% 0 in 0.00 W/m2
03:24 44.4 °F 39.88 °F 29.90 in West 3.4 mph 6.9 mph 84% 0 in 0.00 W/m2
03:29 44.2 °F 39.68 °F 29.90 in West 2.3 mph 5.8 mph 84% 0 in 0.00 W/m2
03:34 44.2 °F 39.37 °F 29.90 in West 2.3 mph 4.6 mph 83% 0 in 0.00 W/m2
03:39 43.9 °F 39.08 °F 29.90 in West 1.1 mph 3.4 mph 83% 0 in 0.00 W/m2
03:44 43.6 °F 39.09 °F 29.90 in West 4.6 mph 5.8 mph 84% 0 in 0.00 W/m2
03:49 43.5 °F 38.69 °F 29.90 in West 2.3 mph 5.8 mph 83% 0 in 0.00 W/m2
03:54 43.5 °F 38.69 °F 29.90 in West 3.4 mph 5.8 mph 83% 0 in 0.00 W/m2
03:59 43.3 °F 38.49 °F 29.90 in West 3.4 mph 4.6 mph 83% 0 in 0.00 W/m2
04:04 43.1 °F 38.3 °F 29.90 in West 2.3 mph 6.9 mph 83% 0 in 0.00 W/m2
04:09 43 °F 38.2 °F 29.90 in West 4.6 mph 8.1 mph 83% 0 in 0.00 W/m2
04:14 43.2 °F 38.09 °F 29.90 in West 4.6 mph 6.9 mph 82% 0 in 0.00 W/m2
04:19 43.2 °F 38.09 °F 29.90 in West 4.6 mph 8.1 mph 82% 0 in 0.00 W/m2
04:24 43.1 °F 37.68 °F 29.90 in West 3.4 mph 9.2 mph 81% 0 in 0.00 W/m2
04:29 43.1 °F 37.68 °F 29.90 in WSW 4.6 mph 8.1 mph 81% 0 in 0.00 W/m2
04:34 43.1 °F 37.68 °F 29.90 in WNW 4.6 mph 9.2 mph 81% 0 in 0.00 W/m2
04:39 42.9 °F 37.48 °F 29.90 in West 6.9 mph 8.1 mph 81% 0 in 0.00 W/m2
04:44 43 °F 37.58 °F 29.90 in West 4.6 mph 6.9 mph 81% 0 in 0.00 W/m2
04:49 42.9 °F 37.48 °F 29.91 in West 4.6 mph 8.1 mph 81% 0 in 0.00 W/m2
04:54 42.7 °F 37.29 °F 29.90 in West 6.9 mph 8.1 mph 81% 0 in 0.00 W/m2
04:59 42.6 °F 37.5 °F 29.90 in WSW 4.6 mph 8.1 mph 82% 0 in 0.00 W/m2
05:04 42.4 °F 36.99 °F 29.90 in West 4.6 mph 8.1 mph 81% 0 in 0.00 W/m2
05:09 42.2 °F 37.11 °F 29.90 in SW 3.4 mph 5.8 mph 82% 0 in 0.00 W/m2
05:14 41.9 °F 36.82 °F 29.91 in West 2.3 mph 5.8 mph 82% 0 in 0.00 W/m2
05:19 41.8 °F 36.72 °F 29.91 in WSW 4.6 mph 9.2 mph 82% 0.01 in 0.00 W/m2
05:24 41.9 °F 36.51 °F 29.91 in West 6.9 mph 6.9 mph 81% 0.01 in 0.00 W/m2
05:29 41.8 °F 36.72 °F 29.91 in WSW 5.8 mph 6.9 mph 82% 0.01 in 0.00 W/m2
05:34 41.6 °F 36.52 °F 29.91 in West 5.8 mph 5.8 mph 82% 0.01 in 0.00 W/m2
05:39 41.5 °F 36.11 °F 29.91 in WSW 3.4 mph 5.8 mph 81% 0.01 in 0.00 W/m2
05:44 41.4 °F 36.02 °F 29.90 in West 5.8 mph 5.8 mph 81% 0.01 in 0.00 W/m2
05:49 41.3 °F 36.23 °F 29.90 in WSW 4.6 mph 6.9 mph 82% 0.01 in 0.00 W/m2
05:54 41 °F 35.94 °F 29.90 in WSW 3.4 mph 6.9 mph 82% 0.01 in 0.00 W/m2
05:59 41.3 °F 36.23 °F 29.90 in West 4.6 mph 6.9 mph 82% 0.01 in 0.00 W/m2
06:04 41.2 °F 36.13 °F 29.90 in WSW 5.8 mph 8.1 mph 82% 0.01 in 0.00 W/m2
06:09 41.1 °F 36.03 °F 29.90 in WSW 4.6 mph 9.2 mph 82% 0.01 in 0.00 W/m2
06:14 41.3 °F 36.23 °F 29.90 in WSW 2.3 mph 9.2 mph 82% 0.01 in 0.00 W/m2
06:19 41.5 °F 36.11 °F 29.90 in West 5.8 mph 9.2 mph 81% 0 in 0.00 W/m2
06:24 41.4 °F 36.02 °F 29.91 in West 4.6 mph 9.2 mph 81% 0 in 0.00 W/m2
06:29 41.6 °F 36.21 °F 29.90 in West 5.8 mph 10.3 mph 81% 0 in 0.00 W/m2
06:34 41.5 °F 36.11 °F 29.90 in WNW 6.9 mph 12.6 mph 81% 0 in 0.00 W/m2
06:39 41.6 °F 35.9 °F 29.91 in West 10.3 mph 11.5 mph 80% 0 in 0.00 W/m2
06:44 41.6 °F 36.21 °F 29.91 in WSW 5.8 mph 10.3 mph 81% 0 in 0.00 W/m2
06:49 41.6 °F 36.21 °F 29.91 in West 6.9 mph 10.3 mph 81% 0 in 0.00 W/m2
06:54 41.8 °F 36.09 °F 29.90 in West 5.8 mph 10.3 mph 80% 0 in 0.00 W/m2
06:59 41.8 °F 36.09 °F 29.90 in WSW 12.6 mph 12.6 mph 80% 0 in 0.00 W/m2
07:04 41.8 °F 36.41 °F 29.90 in WNW 6.9 mph 9.2 mph 81% 0 in 0.00 W/m2
07:09 41.7 °F 36.31 °F 29.91 in WSW 5.8 mph 10.3 mph 81% 0 in 0.00 W/m2
07:14 41.8 °F 36.41 °F 29.91 in West 6.9 mph 11.5 mph 81% 0 in 5.00 W/m2
07:19 41.8 °F 36.41 °F 29.91 in West 8.1 mph 13.8 mph 81% 0 in 7.00 W/m2
07:24 42 °F 36.29 °F 29.91 in West 9.2 mph 9.2 mph 80% 0 in 11.00 W/m2
07:29 42 °F 35.97 °F 29.91 in WSW 5.8 mph 9.2 mph 79% 0 in 12.00 W/m2
07:34 41.9 °F 36.19 °F 29.91 in WSW 5.8 mph 12.6 mph 80% 0 in 14.00 W/m2
07:39 41.8 °F 36.09 °F 29.91 in West 5.8 mph 10.3 mph 80% 0 in 16.00 W/m2
07:44 41.9 °F 35.87 °F 29.91 in WSW 6.9 mph 11.5 mph 79% 0 in 19.00 W/m2
07:49 42.1 °F 36.07 °F 29.91 in WSW 6.9 mph 12.6 mph 79% 0 in 21.00 W/m2
07:54 42.2 °F 36.17 °F 29.90 in SW 5.8 mph 11.5 mph 79% 0 in 21.00 W/m2
07:59 42.4 °F 36.36 °F 29.91 in West 9.2 mph 10.3 mph 79% 0 in 23.00 W/m2
08:04 42.8 °F 36.75 °F 29.91 in West 9.2 mph 12.6 mph 79% 0 in 25.00 W/m2
08:09 43 °F 36.94 °F 29.91 in West 4.6 mph 12.6 mph 79% 0 in 26.00 W/m2
08:14 43.2 °F 36.82 °F 29.91 in WSW 5.8 mph 16.1 mph 78% 0 in 28.00 W/m2
08:19 43.6 °F 37.2 °F 29.91 in SW 10.3 mph 11.5 mph 78% 0 in 32.00 W/m2
08:24 43.9 °F 37.5 °F 29.90 in West 8.1 mph 16.1 mph 78% 0 in 37.00 W/m2
08:29 44.2 °F 37.79 °F 29.91 in WSW 12.6 mph 16.1 mph 78% 0 in 39.00 W/m2
08:34 44.3 °F 37.88 °F 29.90 in WSW 8.1 mph 14.9 mph 78% 0 in 35.00 W/m2
08:39 44.6 °F 37.85 °F 29.90 in West 9.2 mph 17.2 mph 77% 0 in 39.00 W/m2
08:44 44.9 °F 38.14 °F 29.90 in WSW 10.3 mph 13.8 mph 77% 0 in 39.00 W/m2
08:49 45.2 °F 38.43 °F 29.90 in West 12.6 mph 13.8 mph 77% 0 in 44.00 W/m2
08:54 45.4 °F 38.29 °F 29.90 in WSW 8.1 mph 14.9 mph 76% 0 in 39.00 W/m2
08:59 45.8 °F 38.68 °F 29.90 in West 12.6 mph 20.7 mph 76% 0 in 218.00 W/m2
09:04 46 °F 38.53 °F 29.90 in SW 16.1 mph 19.5 mph 75% 0 in 251.00 W/m2
09:09 46.2 °F 38.73 °F 29.90 in WSW 6.9 mph 18.4 mph 75% 0 in 327.00 W/m2
09:14 46.5 °F 39.02 °F 29.90 in SW 13.8 mph 17.2 mph 75% 0 in 338.00 W/m2
09:19 46.8 °F 38.96 °F 29.90 in West 9.2 mph 20.7 mph 74% 0 in 350.00 W/m2
09:24 47.3 °F 39.45 °F 29.90 in SW 6.9 mph 17.2 mph 74% 0 in 360.00 W/m2
09:29 47.8 °F 38.87 °F 29.90 in SSW 9.2 mph 17.2 mph 71% 0 in 325.00 W/m2
Juneau County Weather
Compliments of Weather Underground - 2 mb